Time,TemperatureF,DewpointF,PressureIn,WindDirection,WindDirectionDegrees,WindSpeedMPH,WindSpeedGustMPH,Humidity,HourlyPrecipIn,Conditions,Clouds,dailyrainin,SoftwareType,DateUTC
2017-11-22 00:11:00,59.3,55.1,30.01,NNE,18,0.0,0.0,86,0.00,,---,0.00,VWS V13.01,2017-11-22 06:11:00,
2017-11-22 00:16:00,59.3,55.1,30.01,NNE,18,0.0,0.0,86,0.00,,---,0.00,VWS V13.01,2017-11-22 06:16:00,
2017-11-22 00:21:00,59.4,55.2,30.01,NNE,18,0.0,0.0,86,0.00,,---,0.00,VWS V13.01,2017-11-22 06:21:00,
2017-11-22 00:26:00,59.4,55.2,30.01,NNE,18,0.0,1.0,86,0.00,,---,0.00,VWS V13.01,2017-11-22 06:26:00,
2017-11-22 00:31:00,59.3,54.8,30.01,NNE,17,0.0,0.0,85,0.00,,---,0.00,VWS V13.01,2017-11-22 06:31:00,
2017-11-22 00:37:00,59.2,54.4,30.00,NNE,17,0.0,2.0,84,0.00,,---,0.00,VWS V13.01,2017-11-22 06:37:00,
2017-11-22 00:46:00,59.1,54.0,30.00,North,351,0.0,5.0,83,0.00,,---,0.00,VWS V13.01,2017-11-22 06:46:00,
2017-11-22 00:51:00,59.1,53.6,30.00,North,360,0.0,0.0,82,0.00,,---,0.00,VWS V13.01,2017-11-22 06:51:00,
2017-11-22 01:07:00,59.0,52.5,30.00,North,5,2.0,10.0,79,0.00,,---,0.00,VWS V13.01,2017-11-22 07:07:00,
2017-11-22 01:17:00,59.0,52.2,29.99,North,11,0.0,7.0,78,0.00,,---,0.00,VWS V13.01,2017-11-22 07:17:00,
2017-11-22 01:22:00,59.0,51.8,29.99,North,5,0.0,5.0,77,0.00,,---,0.00,VWS V13.01,2017-11-22 07:22:00,
2017-11-22 01:27:00,59.0,51.8,30.00,North,355,0.0,6.0,77,0.00,,---,0.00,VWS V13.01,2017-11-22 07:27:00,
2017-11-22 01:32:00,59.0,51.1,30.00,NNW,346,0.0,4.0,75,0.00,,---,0.00,VWS V13.01,2017-11-22 07:32:00,
2017-11-22 01:47:00,59.1,50.8,30.00,North,360,0.0,6.0,74,0.00,,---,0.00,VWS V13.01,2017-11-22 07:47:00,
2017-11-22 01:52:00,59.1,50.5,30.00,North,5,0.0,0.0,73,0.00,,---,0.00,VWS V13.01,2017-11-22 07:52:00,
2017-11-22 01:57:00,59.1,50.5,29.99,North,5,4.0,10.0,73,0.00,,---,0.00,VWS V13.01,2017-11-22 07:57:00,
2017-11-22 02:07:00,59.0,50.4,30.00,North,11,0.0,3.0,73,0.00,,---,0.00,VWS V13.01,2017-11-22 08:07:00,
2017-11-22 02:12:00,59.0,50.4,30.00,North,11,0.0,0.0,73,0.00,,---,0.00,VWS V13.01,2017-11-22 08:12:00,
2017-11-22 02:17:00,58.9,49.9,30.00,North,10,0.0,5.0,72,0.00,,---,0.00,VWS V13.01,2017-11-22 08:17:00,
2017-11-22 02:22:00,58.9,49.9,30.00,North,10,0.0,0.0,72,0.00,,---,0.00,VWS V13.01,2017-11-22 08:22:00,
2017-11-22 02:27:00,58.9,49.9,30.00,NW,306,0.0,5.0,72,0.00,,---,0.00,VWS V13.01,2017-11-22 08:27:00,
2017-11-22 02:32:00,58.9,49.9,30.01,NW,306,0.0,0.0,72,0.00,,---,0.00,VWS V13.01,2017-11-22 08:32:00,
2017-11-22 02:37:00,58.8,49.8,30.00,NW,307,0.0,0.0,72,0.00,,---,0.00,VWS V13.01,2017-11-22 08:37:00,
2017-11-22 02:42:00,58.8,49.4,30.00,North,5,4.0,5.0,71,0.00,,---,0.00,VWS V13.01,2017-11-22 08:42:00,
2017-11-22 02:47:00,58.8,49.4,30.00,North,5,0.0,5.0,71,0.00,,---,0.00,VWS V13.01,2017-11-22 08:47:00,
2017-11-22 02:52:00,58.7,49.7,30.00,North,5,0.0,0.0,72,0.00,,---,0.00,VWS V13.01,2017-11-22 08:52:00,
2017-11-22 02:57:00,58.7,49.3,30.01,North,5,0.0,0.0,71,0.00,,---,0.00,VWS V13.01,2017-11-22 08:57:00,
2017-11-22 03:07:00,58.6,49.2,30.00,North,360,0.0,3.0,71,0.00,,---,0.00,VWS V13.01,2017-11-22 09:07:00,
2017-11-22 03:17:00,58.5,49.1,30.00,North,11,0.0,4.0,71,0.00,,---,0.00,VWS V13.01,2017-11-22 09:17:00,
2017-11-22 03:22:00,58.4,48.7,30.00,NNE,12,0.0,2.0,70,0.00,,---,0.00,VWS V13.01,2017-11-22 09:22:00,
2017-11-22 03:27:00,58.4,48.7,30.00,NNE,13,0.0,3.0,70,0.00,,---,0.00,VWS V13.01,2017-11-22 09:27:00,
2017-11-22 03:32:00,58.3,48.2,30.00,North,360,3.0,6.0,69,0.00,,---,0.00,VWS V13.01,2017-11-22 09:32:00,
2017-11-22 03:37:00,58.2,48.1,30.00,North,355,0.0,6.0,69,0.00,,---,0.00,VWS V13.01,2017-11-22 09:37:00,
2017-11-22 03:47:00,58.0,47.5,29.99,North,5,0.0,6.0,68,0.00,,---,0.00,VWS V13.01,2017-11-22 09:47:00,
2017-11-22 03:52:00,57.9,47.4,29.99,North,9,1.0,4.0,68,0.00,,---,0.00,VWS V13.01,2017-11-22 09:52:00,
2017-11-22 03:57:00,57.7,47.2,29.99,North,350,0.0,10.0,68,0.00,,---,0.00,VWS V13.01,2017-11-22 09:57:00,
2017-11-22 04:02:00,57.6,47.5,29.99,North,360,0.0,3.0,69,0.00,,---,0.00,VWS V13.01,2017-11-22 10:02:00,
2017-11-22 04:07:00,57.4,47.3,29.99,North,360,0.0,3.0,69,0.00,,---,0.00,VWS V13.01,2017-11-22 10:07:00,
2017-11-22 04:12:00,57.2,47.1,30.00,North,360,0.0,0.0,69,0.00,,---,0.00,VWS V13.01,2017-11-22 10:12:00,
2017-11-22 04:17:00,57.1,47.4,30.00,North,360,0.0,2.0,70,0.00,,---,0.00,VWS V13.01,2017-11-22 10:17:00,
2017-11-22 04:22:00,57.0,47.3,30.00,North,360,0.0,0.0,70,0.00,,---,0.00,VWS V13.01,2017-11-22 10:22:00,
2017-11-22 04:32:00,56.9,47.6,30.00,North,360,0.0,0.0,71,0.00,,---,0.00,VWS V13.01,2017-11-22 10:32:00,
2017-11-22 04:37:00,56.8,47.5,30.00,North,360,0.0,0.0,71,0.00,,---,0.00,VWS V13.01,2017-11-22 10:37:00,
2017-11-22 04:47:00,56.8,47.5,30.00,North,360,0.0,0.0,71,0.00,,---,0.00,VWS V13.01,2017-11-22 10:47:00,
2017-11-22 04:52:00,56.8,47.5,30.00,North,360,0.0,0.0,71,0.00,,---,0.00,VWS V13.01,2017-11-22 10:52:00,
2017-11-22 04:57:00,56.8,47.1,30.00,North,360,0.0,2.0,70,0.00,,---,0.00,VWS V13.01,2017-11-22 10:57:00,
2017-11-22 05:02:00,56.9,47.2,30.00,North,360,0.0,0.0,70,0.00,,---,0.00,VWS V13.01,2017-11-22 11:02:00,
2017-11-22 05:07:00,56.9,47.2,30.00,North,360,0.0,2.0,70,0.00,,---,0.00,VWS V13.01,2017-11-22 11:07:00,
2017-11-22 05:12:00,56.9,47.2,30.00,North,360,0.0,0.0,70,0.00,,---,0.00,VWS V13.01,2017-11-22 11:12:00,
2017-11-22 05:17:00,56.9,46.8,30.00,North,360,0.0,0.0,69,0.00,,---,0.00,VWS V13.01,2017-11-22 11:17:00,
2017-11-22 05:22:00,56.8,46.8,30.00,NW,313,0.0,1.0,69,0.00,,---,0.00,VWS V13.01,2017-11-22 11:22:00,
2017-11-22 05:32:00,56.6,46.6,30.00,NW,313,0.0,0.0,69,0.00,,---,0.00,VWS V13.01,2017-11-22 11:32:00,
2017-11-22 05:42:00,56.3,46.3,30.00,NW,313,0.0,0.0,69,0.00,,---,0.00,VWS V13.01,2017-11-22 11:42:00,
2017-11-22 05:52:00,56.0,46.4,30.00,NW,313,0.0,1.0,70,0.00,,---,0.00,VWS V13.01,2017-11-22 11:52:00,
2017-11-22 05:57:00,55.9,46.3,30.01,NW,313,0.0,1.0,70,0.00,,---,0.00,VWS V13.01,2017-11-22 11:57:00,
2017-11-22 06:07:00,55.6,46.0,30.01,NNE,17,0.0,6.0,70,0.00,,---,0.00,VWS V13.01,2017-11-22 12:07:00,
2017-11-22 06:08:00,55.6,46.0,30.01,NNE,17,0.0,6.0,70,0.00,,---,0.00,VWS V13.01,2017-11-22 12:08:00,
2017-11-22 06:13:00,55.5,45.9,30.01,NNE,19,2.0,5.0,70,0.00,,---,0.00,VWS V13.01,2017-11-22 12:13:00,
2017-11-22 06:18:00,55.5,45.9,30.01,NNE,19,0.0,5.0,70,0.00,,---,0.00,VWS V13.01,2017-11-22 12:18:00,
2017-11-22 06:23:00,55.4,46.2,30.02,North,5,0.0,6.0,71,0.00,,---,0.00,VWS V13.01,2017-11-22 12:23:00,
2017-11-22 06:28:00,55.5,46.3,30.02,North,5,0.0,6.0,71,0.00,,---,0.00,VWS V13.01,2017-11-22 12:28:00,
2017-11-22 06:33:00,55.5,46.6,30.01,North,5,0.0,3.0,72,0.00,,---,0.00,VWS V13.01,2017-11-22 12:33:00,
2017-11-22 06:38:00,55.5,46.6,30.02,North,5,0.0,4.0,72,0.00,,---,0.00,VWS V13.01,2017-11-22 12:38:00,
2017-11-22 06:43:00,55.5,46.6,30.01,North,5,0.0,4.0,72,0.00,,---,0.00,VWS V13.01,2017-11-22 12:43:00,
2017-11-22 06:48:00,55.5,47.0,30.01,North,5,0.0,4.0,73,0.00,,---,0.00,VWS V13.01,2017-11-22 12:48:00,
2017-11-22 06:53:00,55.5,47.0,30.01,North,5,3.0,3.0,73,0.00,,---,0.00,VWS V13.01,2017-11-22 12:53:00,
2017-11-22 07:03:00,55.5,47.4,30.02,North,5,2.0,4.0,74,0.00,,---,0.00,VWS V13.01,2017-11-22 13:03:00,
2017-11-22 07:08:00,55.6,47.8,30.02,North,5,0.0,4.0,75,0.00,,---,0.00,VWS V13.01,2017-11-22 13:08:00,
2017-11-22 07:13:00,55.7,47.9,30.03,North,5,0.0,0.0,75,0.00,,---,0.00,VWS V13.01,2017-11-22 13:13:00,
2017-11-22 07:18:00,55.8,48.4,30.03,North,5,0.0,0.0,76,0.00,,---,0.00,VWS V13.01,2017-11-22 13:18:00,
2017-11-22 07:23:00,55.9,48.8,30.04,North,5,0.0,0.0,77,0.00,,---,0.00,VWS V13.01,2017-11-22 13:23:00,
2017-11-22 07:28:00,56.1,48.7,30.04,North,5,0.0,2.0,76,0.00,,---,0.00,VWS V13.01,2017-11-22 13:28:00,
2017-11-22 07:33:00,56.4,49.3,30.04,North,5,0.0,4.0,77,0.00,,---,0.00,VWS V13.01,2017-11-22 13:33:00,
2017-11-22 07:38:00,56.7,49.2,30.04,North,5,2.0,7.0,76,0.00,,---,0.00,VWS V13.01,2017-11-22 13:38:00,
2017-11-22 07:43:00,57.1,49.3,30.03,North,5,2.0,4.0,75,0.00,,---,0.00,VWS V13.01,2017-11-22 13:43:00,
2017-11-22 07:48:00,57.4,49.2,30.03,NNW,343,3.0,5.0,74,0.00,,---,0.00,VWS V13.01,2017-11-22 13:48:00,
2017-11-22 07:53:00,57.7,49.5,30.04,NNE,13,0.0,4.0,74,0.00,,---,0.00,VWS V13.01,2017-11-22 13:53:00,
2017-11-22 07:58:00,57.9,49.3,30.04,NNE,24,2.0,11.0,73,0.00,,---,0.00,VWS V13.01,2017-11-22 13:58:00,
2017-11-22 08:08:00,58.3,50.1,30.05,NNE,19,1.0,10.0,74,0.00,,---,0.00,VWS V13.01,2017-11-22 14:08:00,
2017-11-22 08:18:00,58.7,50.8,30.05,North,5,1.0,6.0,75,0.00,,---,0.00,VWS V13.01,2017-11-22 14:18:00,
2017-11-22 08:28:00,59.0,51.8,30.05,North,5,0.0,8.0,77,0.00,,---,0.00,VWS V13.01,2017-11-22 14:28:00,
2017-11-22 08:43:00,59.5,51.9,30.06,North,9,0.0,5.0,76,0.00,,---,0.00,VWS V13.01,2017-11-22 14:43:00,
2017-11-22 08:48:00,59.8,52.2,30.07,North,9,6.0,6.0,76,0.00,,---,0.00,VWS V13.01,2017-11-22 14:48:00,
2017-11-22 08:58:00,60.3,52.7,30.07,NNE,23,2.0,9.0,76,0.00,,---,0.00,VWS V13.01,2017-11-22 14:58:00,
2017-11-22 09:08:00,61.0,53.0,30.06,NNE,17,2.0,10.0,75,0.00,,---,0.00,VWS V13.01,2017-11-22 15:08:00,
2017-11-22 09:13:00,61.3,53.0,30.06,North,355,0.0,6.0,74,0.00,,---,0.00,VWS V13.01,2017-11-22 15:13:00,